Find Starlink 32691

NORAD ID: 62501 Int'l Des: 2025-003 Owner: SPXS Country: US Constellation: starlink operational
LEOCIRCULAR

現在のビュー

3D地球を読み込み中...

About Starlink 32691

Starlink 32691 (NORAD 62501) is a starlink constellation satellite (v2 mini) launched Jan 6, 2025 by SPXS of US. It operates in LEO, CIRCULAR orbit with a mass of 730.00 kg.

Starlink 32691について

説明を読み込み中...

次回通過

Passes for default location (London). Set your location on the main map for personalized predictions.

高度履歴

Loading altitude history...

軌道要素

1 62501U 25003Q 26169.72256706 .00023248 00000-0 85145-3 0 9998
2 62501 43.0002 78.3535 0000697 272.3074 87.7698 15.27588732 82118
Epoch: Jun 18, 2026 • Age: 6 hours

現在のステータス

高度 495.6 km
速度 7.62 km/s
衛星直下点 -42.52°S, 102.88°E
打ち上げ日 Jan 6, 2025
運用期間 1.4 years
タイプ internet

技術仕様

分類 Payload
質量 730.00 kg
乾燥質量 700.00 kg
総質量 730.00 kg
長さ 0.30 m
直径 4.10 m
スパン 29.00 m
形状 Box + pan
製造者 SPXS
バスタイプ Starlink V2M
フェーズステータス In Orbit
所有者/国 SPXS/US

Most Searched